This is the latest recevied weather packets stored in our database for station/object N2XP-2. If no packets are shown the sender has not sent any weather packets the latest 10 day(s).
| Time | Temp. | Humidity | Pressure | Rain* | Wind** | Luminosity | Snow |
|---|---|---|---|---|---|---|---|
| 1778134256 | 17.22° C | 83% | 1008.3 hPa | 1.02 mm | 0.45 m/s, 329° | - | - |
| 1778134247 | 17.78° C | 85% | 1008.3 hPa | 0 mm | 0.89 m/s, 41° | - | - |
| 1778134239 | 17.78° C | 86% | 1008.3 hPa | 0 mm | 0.89 m/s, 1° | - | - |
| 1778134057 | 17.22° C | 83% | 1008.7 hPa | 1.02 mm | 0.89 m/s, 269° | - | - |
| 1778133757 | 17.22° C | 83% | 1008.8 hPa | 1.02 mm | 1.34 m/s, 270° | - | - |
| 1778133454 | 17.22° C | 83% | 1008.3 hPa | 1.02 mm | 0.45 m/s, 329° | - | - |
| 1778133155 | 17.22° C | 84% | 1008.2 hPa | 1.02 mm | 0 m/s | - | - |
| 1778132856 | 17.78° C | 85% | 1008.3 hPa | 0 mm | 0.89 m/s, 41° | - | - |
| 1778132553 | 17.78° C | 86% | 1008.3 hPa | 0 mm | 0.89 m/s, 1° | - | - |
| 1778132327 | 18.33° C | 87% | 1008.1 hPa | 0 mm | 0 m/s | - | - |
| 1778132321 | 18.89° C | 87% | 1008.1 hPa | 0 mm | 0.89 m/s, 7° | - | - |
| 1778132317 | 18.89° C | 87% | 1008.1 hPa | 0 mm | 0.89 m/s, 329° | - | - |
| 1778132254 | 17.78° C | 86% | 1008.4 hPa | 0 mm | 0 m/s | - | - |
| 1778131955 | 18.33° C | 86% | 1008.2 hPa | 0 mm | 0.45 m/s, 321° | - | - |
| 1778131707 | 18.33° C | 86% | 1008 hPa | 0 mm | 0.45 m/s, 352° | - | - |
| 1778131652 | 18.33° C | 86% | 1008 hPa | 0 mm | 0.45 m/s, 352° | - | - |
| 1778131352 | 18.33° C | 87% | 1008.1 hPa | 0 mm | 0.45 m/s, 27° | - | - |
| 1778131053 | 18.33° C | 87% | 1008.1 hPa | 0 mm | 0 m/s | - | - |
| 1778130750 | 18.89° C | 87% | 1008.1 hPa | 0 mm | 0.89 m/s, 7° | - | - |
| 1778130451 | 18.89° C | 87% | 1008.1 hPa | 0 mm | 0.89 m/s, 329° | - | - |
| 1778130400 | 19.44° C | 87% | 1008 hPa | 0 mm | 0 m/s | - | - |
| 1778130280 | 19.44° C | 88% | 1008.2 hPa | 0 mm | 0.89 m/s, 359° | - | - |
| 1778130152 | 19.44° C | 88% | 1008.2 hPa | 0 mm | 0.89 m/s, 359° | - | - |
| 1778129848 | 19.44° C | 88% | 1008 hPa | 0 mm | 0 m/s | - | - |
| 1778129549 | 19.44° C | 88% | 1007.8 hPa | 0 mm | 0 m/s | - | - |
* Rain latest hour (hover to see other rain measurements)
** Current wind speed in m/s (hover to see current wind gust speed)